Fairbanks, AK

3:53 PM AKDT on August 27, 2016 (GMT -0800)
Fairbanks International

Weather History for PAFA - June, 2012

Change the Weather History Date:

Thursday, June 21, 2012

  Actual Average Record
Temperature  
Mean Temperature 65 °F 62 °F  
Max Temperature 78 °F 73 °F 94 °F (1991)
Min Temperature 52 °F 51 °F 37 °F (1928)
Degree Days  
Heating Degree Days 0 4  
Month to date heating degree days 87 130  
Since 1 June heating degree days 87 130  
Since 1 July heating degree days 13860 13639  
Cooling Degree Days 0 1  
Month to date cooling degree days 10 8  
Year to date cooling degree days 10 9  
Since 1 June cooling degree days 10 8  
Growing Degree Days 15 (Base 50)    
Moisture  
Dew Point 43 °F    
Average Humidity 44    
Maximum Humidity 86    
Minimum Humidity 15    
Precipitation  
Precipitation 0.99 in 0.05 in 0.99 in (2012)
Month to date precipitation 1.84 0.86  
Year to date precipitation 4.49 3.02  
Snow  
Snow 0.00 in 0.00 in 0.00 in (2002)
Month to date snowfall 0.0 0.0  
Since 1 June snowfall 0.0 0.0  
Since 1 July snowfall 57.4 65.0  
Snow Depth 0.00 in    
Sea Level Pressure  
Sea Level Pressure 30.03 in    
Wind  
Wind Speed 3 mph (West)    
Max Wind Speed 10 mph    
Max Gust Speed -    
Visibility 10 miles    
Events      
T = Trace of Precipitation, MM = Missing Value Source: NWS Daily Summary

Daily Weather History Graph

Daily Weather History Graph

Search for Another Location

Airport or City:

Trip Planner

Search our weather history database for the weather conditions in past years. The results will help you decide how hot, cold, wet, or windy it might be!

Date:

Astronomy

Jun. 21, 2012 Rise Set
Actual Time 2:59 AM AKDT 12:47 AM AKDT
Civil Twilight Sun does not set Sun does not set
Nautical Twilight Sun does not set Sun does not set
Astronomical Twilight Sun does not set Sun does not set
Moon 6:39 AM AKDT (6/21) 12:12 AM AKDT (6/21)
Length of Visible Light 24h 00m
Length of Day
21h 47m
Waxing Crescent, 5% of the Moon is Illuminated
Jun 21
Waxing Crescent
Jun 26
First Quarter
Jul 3
Full
Jul 10
Last Quarter
Jul 18
New

Hourly Weather History & Observations

Time (AKDT) Temp. Dew Point Humidity Pressure Visibility Wind Dir Wind Speed Gust Speed Precip Events Conditions
12:53 AM 63.0 °F 48.0 °F 58% 30.00 in 10.0 mi SSW 3.5 mph - N/A   Scattered Clouds
1:53 AM 62.1 °F 46.9 °F 58% 30.01 in 10.0 mi SSW 3.5 mph - N/A   Scattered Clouds
2:53 AM 55.9 °F 48.0 °F 75% 30.02 in 10.0 mi Calm Calm - N/A   Scattered Clouds
3:53 AM 55.0 °F 51.1 °F 86% 30.03 in 10.0 mi Calm Calm - N/A   Scattered Clouds
4:53 AM 55.0 °F 50.0 °F 83% 30.04 in 10.0 mi Calm Calm - N/A   Scattered Clouds
5:53 AM 55.0 °F 48.9 °F 80% 30.05 in 10.0 mi Calm Calm - N/A   Mostly Cloudy
6:53 AM 57.0 °F 48.0 °F 72% 30.07 in 10.0 mi ENE 3.5 mph - N/A   Mostly Cloudy
7:53 AM 59.0 °F 48.0 °F 67% 30.08 in 10.0 mi Calm Calm - N/A   Mostly Cloudy
8:53 AM 62.1 °F 48.9 °F 62% 30.07 in 10.0 mi Calm Calm - N/A   Mostly Cloudy
9:53 AM 66.0 °F 48.0 °F 52% 30.07 in 10.0 mi Calm Calm - N/A   Scattered Clouds
10:53 AM 70.0 °F 42.1 °F 36% 30.07 in 10.0 mi Calm Calm - 0.99 in   Scattered Clouds
11:53 AM 73.0 °F 36.0 °F 26% 30.07 in 10.0 mi West 10.4 mph - N/A   Scattered Clouds
12:53 PM 75.0 °F 33.1 °F 22% 30.06 in 10.0 mi West 9.2 mph - N/A   Partly Cloudy
1:53 PM 75.0 °F 37.9 °F 26% 30.05 in 10.0 mi WNW 5.8 mph - N/A   Partly Cloudy
2:53 PM 75.9 °F 39.0 °F 26% 30.03 in 10.0 mi West 6.9 mph - N/A   Partly Cloudy
3:53 PM 77.0 °F 39.0 °F 25% 30.02 in 10.0 mi Variable 3.5 mph - N/A   Partly Cloudy
4:53 PM 77.0 °F 39.9 °F 26% 30.00 in 10.0 mi West 9.2 mph - N/A   Partly Cloudy
5:53 PM 77.0 °F 37.0 °F 24% 29.99 in 10.0 mi WSW 5.8 mph - N/A   Partly Cloudy
6:53 PM 78.1 °F 37.9 °F 24% 29.99 in 10.0 mi West 9.2 mph - N/A   Partly Cloudy
7:53 PM 77.0 °F 36.0 °F 23% 29.98 in 10.0 mi WNW 5.8 mph - N/A   Scattered Clouds
8:53 PM 75.9 °F 36.0 °F 23% 29.98 in 10.0 mi WNW 9.2 mph - N/A   Scattered Clouds
9:53 PM 73.9 °F 36.0 °F 25% 29.98 in 10.0 mi WNW 6.9 mph - N/A   Scattered Clouds
10:53 PM 70.0 °F 43.0 °F 38% 29.98 in 10.0 mi WNW 3.5 mph - N/A   Scattered Clouds
11:53 PM 66.0 °F 43.0 °F 43% 29.99 in 10.0 mi Calm Calm - N/A   Scattered Clouds